Weather observations for the past three days for
Lanai City, Lanai Airport
Imperial (Metric)
Date Time (hst) Wind (mph) Vis. (mi.) Weather Sky Cond. Temperature (ºF) Relative Humidity Wind Chill (°F) Heat Index (°F) Pressure Precipitation (in)
Air Dwpt 6 hour altimeter (in) sea level (mb) 1 hr 3 hr 6 hr
Max. Min.
19 06:56 NE 10 10.00 Fair CLR 70 66 87% 30.1 1017.4
19 05:56 E 8 10.00 A Few Clouds FEW055 66 64 93% 30.09 1017.1
19 04:56 NE 9 10.00 Fair CLR 68 64.9 90% 30.08 1016.7
19 03:56 NE 12 10.00 Fair CLR 68 64.9 90% 30.08 1016.5
19 02:56 NE 13 10.00 A Few Clouds FEW050 68 64.9 90% 30.08 1016.6
19 01:56 NE 17 G 23 10.00 Fair CLR 69.1 64.9 71.1 68 87% 30.09 1016.7
19 00:56 NE 12 10.00 Fair CLR 69.1 64.9 87% 30.1 1017.1
18 23:56 NE 17 10.00 Fair CLR 69.1 64.9 87% 30.11 1017.4
18 22:56 NE 18 10.00 Fair CLR 70 64.9 84% 30.12 1017.8
18 21:56 NE 17 G 22 10.00 Fair CLR 70 64.9 84% 30.12 1017.9
18 20:56 NE 16 10.00 Fair CLR 70 64 82% 30.11 1017.6
18 19:56 NE 20 G 28 10.00 Fair CLR 71.1 64.9 80.1 71.1 81% 30.1 1017.2
18 18:56 NE 20 G 26 10.00 Fair CLR 72 64.9 79% 30.08 1016.7
18 17:56 NE 22 G 28 10.00 Fair and Breezy CLR 75 64 69% 77 30.07 1016.4
18 16:56 NE 21 10.00 Fair and Breezy CLR 77 64 64% 79 30.07 1016.2
18 15:56 NE 20 G 25 10.00 Fair CLR 79 64 60% 81 30.07 1016.1
18 14:56 NE 17 10.00 Fair CLR 79 64 60% 81 30.08 1016.4
18 13:56 NE 16 10.00 Fair CLR 80.1 64 82 73 58% 82 30.08 1016.6
18 12:56 NE 17 G 22 10.00 A Few Clouds FEW044 80.1 64 58% 82 30.1 1017.1
18 11:56 NE 10 G 18 10.00 Mostly Cloudy BKN039 80.1 63 56% 81 30.12 1017.6
18 10:56 Calm 10.00 Overcast OVC033 75.9 61 60% 78 30.13 1018.2
18 09:56 W 5 10.00 Mostly Cloudy BKN035 75.9 62.1 62% 78 30.13 1018.1
18 08:56 N 7 10.00 Fair CLR 75.9 61 60% 78 30.12 1018.0
18 07:56 Vrbl 3 10.00 Fair CLR 73 61 73 64.9 66% 30.12 1017.9
18 06:56 NE 13 10.00 Fair CLR 70 61 73% 30.11 1017.7
18 05:56 NE 9 10.00 Fair CLR 66.9 61 81% 30.09 1016.9
18 04:56 NE 12 10.00 Fair CLR 66.9 62.1 84% 30.07 1016.3
18 03:56 NE 9 10.00 Fair CLR 66.9 60.1 79% 30.07 1016.2
18 02:56 NE 8 10.00 Fair CLR 66.9 62.1 84% 30.07 1016.3
18 01:56 NE 6 10.00 Fair CLR 66 63 70 64.9 90% 30.08 1016.5
18 00:56 NE 8 10.00 Fair CLR 66.9 64 91% 30.09 1016.9
17 23:56 NE 13 10.00 Fair CLR 69.1 64 84% 30.1 1017.3
17 22:56 NE 10 G 20 10.00 Fair CLR 69.1 63 81% 30.12 1017.7
17 21:56 NE 17 G 22 10.00 Fair CLR 70 62.1 76% 30.11 1017.5
17 20:56 NE 14 G 22 10.00 Fair CLR 70 62.1 76% 30.1 1017.1
17 19:56 NE 23 G 28 10.00 Fair and Breezy CLR 70 63 80.1 70 79% 30.08 1016.5
17 18:56 NE 16 G 25 10.00 Fair CLR 72 64 76% 30.07 1016.3
17 17:56 NE 22 G 28 10.00 Fair and Breezy CLR 73.9 63 69% 30.06 1015.8
17 16:56 NE 20 G 29 10.00 Fair CLR 75.9 63 64% 78 30.05 1015.6
17 15:56 NE 24 G 29 10.00 Fair and Breezy CLR 78.1 62.1 58% 80 30.05 1015.6
17 14:56 NE 21 10.00 Fair and Breezy CLR 79 61 54% 80 30.07 1016.2
17 13:56 NE 15 G 20 10.00 Overcast OVC037 78.1 61 80.1 73 56% 80 30.09 1016.7
17 12:56 NW 7 10.00 Overcast OVC033 75.9 62.1 62% 78 30.11 1017.4
17 11:56 E 9 10.00 Mostly Cloudy BKN035 78.1 63 60% 80 30.12 1017.7
17 10:56 NE 13 G 22 10.00 Mostly Cloudy BKN035 79 61 54% 80 30.12 1017.6
17 09:56 E 9 G 16 10.00 Partly Cloudy SCT035 79 62.1 56% 80 30.12 1017.7
17 08:56 NE 13 G 20 10.00 A Few Clouds FEW029 75.9 61 60% 78 30.12 1017.6
17 07:56 NE 8 10.00 Fair CLR 73 63 73 64.9 71% 30.11 1017.7
17 06:56 Vrbl 6 10.00 Fair CLR 71.1 61 71% 30.1 1017.1
17 05:56 E 3 10.00 Fair CLR 66 60.1 81% 30.08 1016.7
17 04:56 E 13 10.00 Fair CLR 68 62.1 81% 30.07 1016.2
17 03:56 E 15 10.00 Fair CLR 68 61 78% 30.07 1016.1
17 02:56 E 13 G 21 10.00 Fair CLR 69.1 60.1 73% 30.07 1016.1
17 01:56 E 14 10.00 Fair CLR 69.1 59 72 69.1 70% 30.08 1016.4
17 00:56 N 7 10.00 Fair CLR 70 63 79% 30.1 1016.9
16 23:56 E 12 10.00 Fair CLR 69.1 61 76% 30.11 1017.4
16 22:56 NE 18 G 24 10.00 Fair CLR 71.1 57 61% 30.12 1017.7
16 21:56 NE 16 G 22 10.00 Fair CLR 71.1 57 61% 30.12 1017.7
16 20:56 E 17 G 22 10.00 Fair CLR 72 59 64% 30.11 1017.5
16 19:56 E 16 G 21 10.00 Fair CLR 71.1 62.1 82 71.1 73% 30.1 1017.1
16 18:56 NE 15 G 23 10.00 Fair CLR 72 62.1 71% 30.07 1016.3
16 17:56 NE 18 G 31 10.00 Fair CLR 75.9 63 64% 78 30.06 1015.8
16 16:56 NE 21 G 28 10.00 Fair and Breezy CLR 78.1 63 60% 80 30.05 1015.3
16 15:56 NE 23 G 29 10.00 Mostly Cloudy and Breezy BKN034 78.1 64.9 64% 80 30.05 1015.4
16 14:56 NE 18 G 25 10.00 Mostly Cloudy BKN036 81 64.9 58% 83 30.06 1015.7
16 13:56 E 10 G 20 10.00 Fair CLR 80.1 63 82 75 56% 81 30.07 1016.1
16 12:56 NE 20 G 28 10.00 A Few Clouds FEW034 82 63 53% 83 30.07 1016.1
16 11:56 NE 14 G 30 10.00 Fair CLR 81 60.1 49% 82 30.1 1016.9
16 10:56 E 8 G 18 10.00 A Few Clouds FEW033 81 62.1 53% 82 30.11 1017.4
16 09:56 NE 17 G 28 10.00 Fair CLR 79 60.1 52% 80 30.1 1017.2
16 08:56 E 18 G 25 10.00 Fair CLR 77 62.1 60% 79 30.11 1017.3
16 07:56 E 13 10.00 Fair CLR 75 61 75 66 62% 77 30.11 1017.4
Date Time (hst) Wind (mph) Vis. (mi.) Weather Sky Cond. Air Dwpt Max. Min. Relative Humidity Wind Chill (°F) Heat Index (°F) altimeter (in) sea level (mb) 1 hr 3 hr 6 hr
6 hour
Temperature (ºF) Pressure Precipitation (in)